Content
SEND FEEDBACK

Daily
Averages
Monthly
Summary
United States of America

BLISS, IDAHO


Home > North America > United States > Idaho
Elevation: 3270 feet     Latitude: 42 56N     Longitude: 114 57W

WEATHER
 
SELECT A DAY
Number of Records: 155,431;   Date Range: 2/26/98 - 8/30/14
 
SHARE

PRINT THIS DATA

[ ← Previous Day ]
WEATHER ALMANAC - FEBRUARY 13, 2013
[ Next Day → ]
[ °C ]   °F
Weather ElementAverageHighLow
Temperature37.7 °F46 °F (12:53 pm)32 °F (2:53 am)
Dewpoint27.9 °F30 °F (12:53 pm)26.1 °F (1:53 am)
Humidity68.4 %79 % (2:53 am)53 % (1:53 pm)
Barometer30.28 in30.34 in (1:53 am)30.22 in (4:53 pm)
Wind Speed16.8 mph27.6 mph (1:53 pm)
Wind Gust33.4 mph (1:53 pm)
Weather ElementAverage
Visibility10 mi
Wind DirectionWSW (235.7 °)

Weather ElementTotal
Precipitation---
Heating Degree Days26 (Base 65)
Averaged from 23 records on February 13, 2013
WEATHER CONDITIONS BREAKOUT
WIND DIRECTION BREAKOUT
WEATHER BY HOUR - FEBRUARY 13, 2013
[ °C ]   °F
Local TimeTemperatureDewpointHumidityBarometerVisibilityWind DirectionWind SpeedGust SpeedPrecipitationEventsConditions
1:53 AM33.1 °F26.1 °F75 %30.34 in10.0 miSSW (210°)12.7 mphPartly Cloudy
2:53 AM32.0 °F26.1 °F79 %30.34 in10.0 miSW (220°)9.2 mphMostly Cloudy
3:53 AM33.1 °F27.0 °F78 %30.33 in10.0 miSW (220°)10.4 mphOvercast
4:53 AM33.1 °F27.0 °F78 %30.32 in10.0 miSSW (210°)12.7 mphOvercast
5:53 AM33.1 °F27.0 °F78 %30.33 in10.0 miSW (220°)12.7 mphOvercast
6:53 AM33.1 °F27.0 °F78 %30.33 in10.0 miSW (220°)10.4 mphMostly Cloudy
7:53 AM33.1 °F27.0 °F78 %30.33 in10.0 miSW (220°)11.5 mphMostly Cloudy
8:53 AM35.1 °F28.0 °F76 %30.32 in10.0 miSW (220°)17.3 mphScattered Clouds
9:53 AM37.0 °F28.9 °F73 %30.33 in10.0 miSW (220°)16.1 mphOvercast
10:53 AM39.0 °F28.9 °F67 %30.31 in10.0 miSW (230°)21.9 mphMostly Cloudy
11:53 AM43.0 °F28.9 °F58 %30.29 in10.0 miWSW (240°)20.7 mph32.2 mphClear
12:53 PM46.0 °F30.0 °F54 %30.26 in10.0 miWest (260°)23.0 mph29.9 mphClear
1:53 PM45.0 °F28.9 °F53 %30.25 in10.0 miWSW (250°)27.6 mph33.4 mphClear
2:53 PM46.0 °F30.0 °F54 %30.24 in10.0 miWest (260°)23.0 mph29.9 mphClear
3:53 PM45.0 °F28.9 °F53 %30.23 in10.0 miWSW (250°)24.2 mph28.8 mphClear
4:53 PM43.0 °F28.9 °F58 %30.22 in10.0 miWest (260°)24.2 mph29.9 mphClear
5:53 PM39.9 °F28.0 °F63 %30.23 in10.0 miWest (260°)16.1 mph21.9 mphClear
6:53 PM39.0 °F27.0 °F62 %30.25 in10.0 miWSW (240°)13.8 mph20.7 mphMostly Cloudy
7:53 PM37.9 °F27.0 °F65 %30.25 in10.0 miWest (260°)17.3 mphOvercast
8:53 PM36.0 °F27.0 °F70 %30.26 in10.0 miWSW (240°)12.7 mphOvercast
9:53 PM35.1 °F27.0 °F72 %30.25 in10.0 miSW (230°)17.3 mphClear
10:53 PM35.1 °F28.0 °F76 %30.26 in10.0 miWSW (240°)16.1 mphClear
11:53 PM35.1 °F28.0 °F76 %30.26 in10.0 miWSW (240°)16.1 mphClear
Hourly data recorded from KJER, located miles away from Bliss, Idaho







STORIES FROM OUR PARTNERS